Simultaneous Nadir Overpasses (SNOs) Predictions

Prediction of SNOs between AQUA and METOP-B Satellite Orbit:

Table of predicted SNOs for the next 14.0 days since TLE Epoch: 9/6/2019
Index Date (AQUA) Time (AQUA) Lat,Lon (AQUA) SZA (AQUA ) Date (METOP-B) Time (METOP-B) Lat,Lon (METOP-B) SZA (METOP-B ) Distance(km) Time Diff (sec)
1 09/09/2019 13:20:51 -73.85, 153.96 111.47 09/09/2019 13:20:08 -73.86, 154.06 111.46 3.38 43
2 09/09/2019 14:10:20 73.90, -38.52 68.60 09/09/2019 14:10:47 73.88, -38.53 68.59 1.43 27
3 09/12/2019 08:55:06 -73.86,-139.64 110.39 09/12/2019 08:54:30 -73.85,-139.54 110.40 3.28 36
4 09/12/2019 09:44:35 73.92, 27.87 69.69 09/12/2019 09:45:08 73.92, 27.97 69.68 2.98 33
5 09/15/2019 04:29:20 -73.83, -73.13 109.35 09/15/2019 04:28:52 -73.84, -73.15 109.34 1.15 28
6 09/15/2019 05:18:49 73.90, 94.36 70.73 09/15/2019 05:19:30 73.91, 94.35 70.74 1.63 41
7 09/18/2019 00:03:34 -73.86, -6.76 108.24 09/18/2019 00:03:13 -73.83, -6.76 108.27 3.07 21
8 09/18/2019 00:53:03 73.93, 160.72 71.85 09/18/2019 00:53:51 73.90, 160.72 71.81 3.78 48
9 09/20/2019 18:48:12 73.30,-106.75 72.24 09/20/2019 18:47:05 73.20,-109.12 72.22 76.58 67
10 09/20/2019 19:37:48 -73.84, 59.72 107.18 09/20/2019 19:37:34 -73.87, 59.74 107.14 3.40 14
11 09/20/2019 20:27:17 73.92,-132.81 72.92 09/20/2019 20:28:12 73.93,-132.78 72.93 1.71 55




NCC Satellite Simultaneous Nadir Overpasses (SNOs) Prediction Service
